San Sebastian, Spain

9:47 AM CEST on March 28, 2017 (GMT +0200)
San Sebastian

Weather History for LESO - February, 2014

Change the Weather History Date:

Friday, February 14, 2014

  Actual Average Record
Temperature  
Mean Temperature 60 °F -  
Max Temperature 73 °F 56 °F 73 °F (2014)
Min Temperature 47 °F 43 °F 30 °F (1999)
Degree Days  
Heating Degree Days 5    
Growing Degree Days 10 (Base 50)    
Moisture  
Dew Point 47 °F    
Average Humidity 49    
Maximum Humidity 82    
Minimum Humidity 30    
Precipitation  
Precipitation 0.00 in - - ()
Sea Level Pressure  
Sea Level Pressure 29.61 in    
Wind  
Wind Speed 18 mph ()    
Max Wind Speed 29 mph    
Max Gust Speed 43 mph    
Visibility 7.3 miles    
Events      
Averages and records for this station are not official NWS values.
T = Trace of Precipitation, MM = Missing Value Source: Averaged Metar Reports

Daily Weather History Graph

Daily Weather History Graph

Search for Another Location

Airport or City:

Trip Planner

Search our weather history database for the weather conditions in past years. The results will help you decide how hot, cold, wet, or windy it might be!

Date:

Astronomy

Feb. 14, 2014 Rise Set
Actual Time 8:07 AM CET 6:36 PM CET
Civil Twilight 7:37 AM CET 7:05 PM CET
Nautical Twilight 7:04 AM CET 7:39 PM CET
Astronomical Twilight 6:31 AM CET 8:12 PM CET
Moon 6:27 PM CET (2/14) 7:25 AM CET (2/14)
Length of Visible Light 11h 28m
Length of Day
10h 29m
Full, 100% of the Moon is Illuminated
Feb 14
Full
Feb 15
Full
Feb 22
Last Quarter
Mar 1
New
Mar 8
First Quarter

Hourly Weather History & Observations

Time (CET) Temp. Dew Point Humidity Pressure Visibility Wind Dir Wind Speed Gust Speed Precip Events Conditions
5:30 AM 62.6 °F 46.4 °F 55% 29.71 in - South 21.9 mph - N/A   Clear
6:00 AM 62.6 °F 46.4 °F 55% 29.68 in - South 24.2 mph - N/A   Clear
6:30 AM 62.6 °F 46.4 °F 55% 29.68 in - South 20.7 mph 32.2 mph N/A   Clear
7:00 AM 64 °F 45 °F 39% 29.69 in 9 mi South 23.0 mph - -   Partly Cloudy
7:00 AM 62.6 °F 48.2 °F 59% 29.68 in - South 24.2 mph - N/A   Clear
7:30 AM 62.6 °F 48.2 °F 59% 29.68 in - South 18.4 mph - N/A   Clear
8:00 AM 64.4 °F 46.4 °F 52% 29.65 in - South 19.6 mph - N/A   Clear
8:30 AM 64.4 °F 46.4 °F 52% 29.65 in - South 23.0 mph - N/A   Clear
9:00 AM 66.2 °F 46.4 °F 49% 29.65 in 6.2 mi South 23.0 mph 38.0 mph N/A   Partly Cloudy
9:30 AM 64.4 °F 46.4 °F 52% 29.65 in 6.2 mi South 18.4 mph - N/A   Partly Cloudy
10:00 AM 66 °F 44 °F 34% 29.66 in 9 mi South 24.2 mph - -   Scattered Clouds
10:00 AM 64.4 °F 46.4 °F 52% 29.65 in 6.2 mi South 21.9 mph 33.4 mph N/A   Partly Cloudy
10:30 AM 66.2 °F 46.4 °F 49% 29.65 in - South 19.6 mph 33.4 mph N/A   Clear
11:00 AM 66.2 °F 46.4 °F 49% 29.65 in - SSW 23.0 mph 36.8 mph N/A   Clear
11:30 AM 66.2 °F 46.4 °F 49% 29.62 in - South 28.8 mph 40.3 mph N/A   Clear
12:00 PM 64.4 °F 46.4 °F 52% 29.62 in - South 20.7 mph 33.4 mph N/A   Clear
12:30 PM 66.2 °F 46.4 °F 49% 29.62 in - South 21.9 mph 34.5 mph N/A   Clear
1:00 PM 68 °F 45 °F 32% 29.62 in 9 mi South 17.3 mph - -   Scattered Clouds
1:00 PM 66.2 °F 46.4 °F 49% 29.59 in - South 13.8 mph - N/A   Clear
1:30 PM 68.0 °F 48.2 °F 49% 29.59 in - South 21.9 mph 35.7 mph N/A   Clear
2:00 PM 68.0 °F 48.2 °F 49% 29.56 in - South 26.5 mph 42.6 mph N/A   Clear
2:30 PM 69.8 °F 48.2 °F 46% 29.56 in - South 17.3 mph 31.1 mph N/A   Clear
3:00 PM 69.8 °F 48.2 °F 46% 29.53 in 6.2 mi South 13.8 mph 27.6 mph N/A   Partly Cloudy
3:30 PM 71.6 °F 48.2 °F 43% 29.53 in 6.2 mi South 24.2 mph 40.3 mph N/A   Partly Cloudy
4:00 PM 72 °F 47 °F 30% 29.54 in 9 mi South 16.1 mph - -   Scattered Clouds
4:00 PM 69.8 °F 48.2 °F 46% 29.53 in 6.2 mi South 15.0 mph 26.5 mph N/A   Partly Cloudy
4:30 PM 69.8 °F 46.4 °F 43% 29.53 in - South 18.4 mph - N/A   Clear
5:00 PM 71.6 °F 46.4 °F 41% 29.53 in - SSW 11.5 mph - N/A   Clear
5:30 PM 71.6 °F 46.4 °F 41% 29.53 in - South 18.4 mph - N/A   Clear
6:00 PM 69.8 °F 44.6 °F 40% 29.53 in - South 16.1 mph - N/A   Clear
6:30 PM 69.8 °F 44.6 °F 40% 29.53 in - South 18.4 mph 32.2 mph N/A   Clear
7:00 PM 71 °F 47 °F 31% 29.57 in 9 mi South 17.3 mph - -   Partly Cloudy
7:00 PM 69.8 °F 42.8 °F 38% 29.56 in - South 17.3 mph 28.8 mph N/A   Clear
7:30 PM 69.8 °F 44.6 °F 40% 29.59 in - SW 5.8 mph 17.3 mph N/A   Clear
8:00 PM 55.4 °F 48.2 °F 77% 29.62 in - Variable 10.4 mph - N/A   Clear
8:30 PM 55.4 °F 50.0 °F 82% 29.65 in - NE 6.9 mph - N/A   Clear
9:00 PM 55.4 °F 48.2 °F 77% 29.65 in 6.2 mi ENE 3.5 mph - N/A   Partly Cloudy
9:30 PM 55.4 °F 48.2 °F 77% 29.65 in 6.2 mi ENE 3.5 mph - N/A   Partly Cloudy